This is the latest recevied weather packets stored in our database for station/object NC4M. If no packets are shown the sender has not sent any weather packets the latest 10 day(s).
| Time | Temp. | Humidity | Pressure | Rain* | Wind** | Luminosity | Snow |
|---|---|---|---|---|---|---|---|
| 1778030868 | 6.67° C | 93% | 1011.8 hPa | 0 mm | - | 0 W/m² | - |
| 1778030565 | 6.67° C | 93% | 1011.9 hPa | 0 mm | - | 0 W/m² | - |
| 1778030262 | 6.67° C | 93% | 1011.6 hPa | 0 mm | - | 0 W/m² | - |
| 1778029958 | 6.67° C | 93% | 1012 hPa | 1.27 mm | - | 0 W/m² | - |
| 1778029657 | 6.67° C | 93% | 1011.2 hPa | 1.27 mm | - | 0 W/m² | - |
| 1778029354 | 6.67° C | 93% | 1011.3 hPa | 0 mm | - | 1 W/m² | - |
| 1778029051 | 6.67° C | 94% | 1011.5 hPa | 0 mm | - | 1 W/m² | - |
| 1778028748 | 6.67° C | 93% | 1011.3 hPa | 0 mm | - | 1 W/m² | - |
| 1778028443 | 6.67° C | 93% | 1011.2 hPa | 1.78 mm | - | 1 W/m² | - |
| 1778028141 | 6.67° C | 93% | 1011 hPa | 4.83 mm | - | 2 W/m² | - |
| 1778027837 | 6.67° C | 93% | 1011.2 hPa | 4.32 mm | - | 2 W/m² | - |
| 1778027534 | 6.67° C | 93% | 1011 hPa | 1.27 mm | - | 3 W/m² | - |
| 1778027230 | 6.67° C | 93% | 1011.3 hPa | 0 mm | - | 3 W/m² | - |
| 1778026926 | 6.67° C | 93% | 1011.2 hPa | 0 mm | - | 4 W/m² | - |
| 1778026621 | 6.67° C | 93% | 1011 hPa | 0 mm | - | 5 W/m² | - |
| 1778026319 | 6.67° C | 93% | 1011 hPa | 0 mm | - | 7 W/m² | - |
| 1778026016 | 7.22° C | 93% | 1011.1 hPa | 0 mm | - | 9 W/m² | - |
| 1778025714 | 7.22° C | 93% | 1010.9 hPa | 0 mm | - | 10 W/m² | - |
| 1778025412 | 6.67° C | 93% | 1011.2 hPa | 1.78 mm | - | 8 W/m² | - |
| 1778025109 | 7.22° C | 93% | 1011 hPa | 3.56 mm | - | 13 W/m² | - |
| 1778024805 | 6.67° C | 92% | 1011.2 hPa | 3.05 mm | - | 11 W/m² | - |
| 1778024502 | 7.22° C | 92% | 1011.2 hPa | 1.27 mm | - | 10 W/m² | - |
| 1778024199 | 7.22° C | 93% | 1011.1 hPa | 0 mm | - | 6 W/m² | - |
| 1778023897 | 7.22° C | 93% | 1011.1 hPa | 0 mm | - | 13 W/m² | - |
| 1778023594 | 7.22° C | 93% | 1011.1 hPa | 1.78 mm | - | 15 W/m² | - |
* Rain latest hour (hover to see other rain measurements)
** Current wind speed in m/s (hover to see current wind gust speed)